When you browse on this site, cookies collect data to enhance your experience and personalize the content and advertising you see.
Visit our Privacy Policy to learn more. By continuing to use the site, you agree to this use of cookies and data.
  • In Portugal
  • List of Countries
  • For 7 days
  • Water Temperature
  • Weather Map
  • Weather Widgets
  • user-avatar
    Login

    Hourly Weather Bahmahi

    Today, 21 August, Wednesday

    Time Temperature Precipitation Wind Pressure Humidity
    00:00 +19°C° 0 mm 2 mps 668 mmHg 54%
    01:00 +19°C° 0 mm 2 mps 668 mmHg 55%
    02:00 +20°C° 0 mm 1 mps 668 mmHg 57%
    03:00 +19°C° 0 mm 1 mps 668 mmHg 58%
    04:00 +20°C° 0 mm 1 mps 668 mmHg 58%
    05:00 +20°C° 0 mm 1 mps 668 mmHg 58%
    06:00 +21°C° 0 mm 1 mps 668 mmHg 58%
    07:00 +23°C° 0 mm 2 mps 669 mmHg 51%
    08:00 +26°C° 0 mm 2 mps 669 mmHg 44%
    09:00 +28°C° 0 mm 2 mps 670 mmHg 37%
    10:00 +29°C° 0 mm 3 mps 670 mmHg 34%
    11:00 +30°C° 0 mm 3 mps 670 mmHg 32%
    12:00 +32°C° 0 mm 4 mps 670 mmHg 29%
    13:00 +30°C° 0 mm 4 mps 669 mmHg 29%
    14:00 +30°C° 0 mm 4 mps 669 mmHg 29%
    15:00 +30°C° 0 mm 4 mps 669 mmHg 28%
    16:00 +28°C° 0 mm 3 mps 668 mmHg 33%
    17:00 +27°C° 0 mm 3 mps 668 mmHg 37%
    18:00 +25°C° 0 mm 2 mps 667 mmHg 41%
    19:00 +24°C° 0 mm 2 mps 667 mmHg 42%
    20:00 +23°C° 0 mm 2 mps 666 mmHg 43%
    21:00 +20°C° 0 mm 2 mps 666 mmHg 45%
    22:00 +20°C° 0 mm 2 mps 666 mmHg 45%
    23:00 +20°C° 0 mm 2 mps 666 mmHg 46%

    Tomorrow, 22 August, Thursday

    Time Temperature Precipitation Wind Pressure Humidity
    00:00 +20°C° 0 mm 2 mps 666 mmHg 47%
    01:00 +20°C° 0 mm 2 mps 666 mmHg 48%
    02:00 +20°C° 0 mm 1 mps 666 mmHg 50%
    03:00 +20°C° 0 mm 1 mps 665 mmHg 51%
    04:00 +20°C° 0 mm 1 mps 665 mmHg 52%
    05:00 +21°C° 0 mm 1 mps 665 mmHg 52%
    06:00 +21°C° 0 mm 1 mps 666 mmHg 53%
    07:00 +23°C° 0 mm 2 mps 666 mmHg 45%
    08:00 +26°C° 0 mm 2 mps 667 mmHg 38%
    09:00 +28°C° 0 mm 3 mps 667 mmHg 31%
    10:00 +29°C° 0 mm 4 mps 667 mmHg 29%
    11:00 +30°C° 0 mm 4 mps 667 mmHg 27%
    12:00 +32°C° 0 mm 5 mps 667 mmHg 26%
    13:00 +32°C° 0 mm 5 mps 667 mmHg 26%
    14:00 +30°C° 0 mm 6 mps 667 mmHg 27%
    15:00 +30°C° 0 mm 6 mps 667 mmHg 28%
    16:00 +29°C° 0 mm 5 mps 666 mmHg 32%
    17:00 +27°C° 0 mm 4 mps 666 mmHg 36%
    18:00 +25°C° 0 mm 2 mps 665 mmHg 40%
    19:00 +24°C° 0 mm 2 mps 665 mmHg 42%
    20:00 +21°C° 0 mm 2 mps 665 mmHg 44%
    21:00 +20°C° 0 mm 2 mps 666 mmHg 46%
    22:00 +20°C° 0 mm 2 mps 665 mmHg 46%
    23:00 +19°C° 0 mm 2 mps 665 mmHg 46%

    Day after tomorrow, 23 August, Friday

    Time Temperature Precipitation Wind Pressure Humidity
    00:00 +19°C° 0 mm 2 mps 665 mmHg 46%
    01:00 +19°C° 0 mm 2 mps 665 mmHg 46%
    02:00 +19°C° 0 mm 2 mps 665 mmHg 45%
    03:00 +18°C° 0 mm 2 mps 665 mmHg 45%
    04:00 +19°C° 0 mm 2 mps 665 mmHg 45%
    05:00 +19°C° 0 mm 2 mps 665 mmHg 44%
    06:00 +20°C° 0 mm 2 mps 666 mmHg 44%
    07:00 +23°C° 0 mm 2 mps 666 mmHg 38%
    08:00 +26°C° 0 mm 3 mps 667 mmHg 33%
    09:00 +29°C° 0 mm 3 mps 668 mmHg 28%
    10:00 +29°C° 0 mm 4 mps 668 mmHg 27%
    11:00 +30°C° 0 mm 4 mps 668 mmHg 27%
    12:00 +32°C° 0 mm 5 mps 668 mmHg 27%
    13:00 +30°C° 0 mm 5 mps 668 mmHg 28%
    14:00 +30°C° 0 mm 5 mps 668 mmHg 29%
    15:00 +30°C° 0 mm 6 mps 667 mmHg 29%
    16:00 +28°C° 0 mm 4 mps 667 mmHg 35%
    17:00 +27°C° 0 mm 3 mps 667 mmHg 41%
    18:00 +25°C° 0 mm 2 mps 666 mmHg 47%
    19:00 +24°C° 0 mm 2 mps 666 mmHg 47%
    20:00 +23°C° 0 mm 2 mps 666 mmHg 47%
    21:00 +21°C° 0 mm 2 mps 666 mmHg 47%
    22:00 +20°C° 0 mm 2 mps 666 mmHg 46%
    23:00 +20°C° 0 mm 2 mps 666 mmHg 45%

    24 August, Saturday

    Time Temperature Precipitation Wind Pressure Humidity
    00:00 +20°C° 0 mm 2 mps 666 mmHg 44%
    01:00 +19°C° 0 mm 2 mps 666 mmHg 44%
    02:00 +19°C° 0 mm 2 mps 666 mmHg 44%
    03:00 +19°C° 0 mm 2 mps 666 mmHg 44%
    04:00 +19°C° 0 mm 2 mps 666 mmHg 44%
    05:00 +19°C° 0 mm 2 mps 666 mmHg 45%
    06:00 +20°C° 0 mm 2 mps 666 mmHg 45%
    07:00 +23°C° 0 mm 2 mps 667 mmHg 40%
    08:00 +26°C° 0 mm 1 mps 668 mmHg 35%
    09:00 +28°C° 0 mm 1 mps 668 mmHg 31%
    10:00 +29°C° 0 mm 2 mps 669 mmHg 30%
    11:00 +30°C° 0 mm 2 mps 669 mmHg 30%
    12:00 +30°C° 0 mm 3 mps 669 mmHg 29%
    13:00 +30°C° 0 mm 4 mps 668 mmHg 31%
    14:00 +30°C° 0 mm 4 mps 668 mmHg 33%
    15:00 +30°C° 0 mm 5 mps 668 mmHg 35%
    16:00 +28°C° 0.1 mm 3 mps 668 mmHg 41%
    17:00 +26°C° 0.1 mm 2 mps 667 mmHg 47%
    18:00 +24°C° 0.1 mm 1 mps 667 mmHg 54%
    19:00 +23°C° 0 mm 1 mps 667 mmHg 53%
    20:00 +21°C° 0 mm 2 mps 667 mmHg 52%
    21:00 +20°C° 0 mm 2 mps 667 mmHg 51%
    22:00 +19°C° 0 mm 2 mps 667 mmHg 48%
    23:00 +19°C° 0 mm 2 mps 667 mmHg 46%

    25 August, Sunday

    Time Temperature Precipitation Wind Pressure Humidity
    00:00 +19°C° 0 mm 2 mps 667 mmHg 44%
    01:00 +19°C° 0 mm 2 mps 667 mmHg 43%
    02:00 +20°C° 0 mm 1 mps 667 mmHg 42%
    03:00 +19°C° 0 mm 1 mps 667 mmHg 42%
    04:00 +20°C° 0 mm 1 mps 667 mmHg 42%
    05:00 +20°C° 0 mm 1 mps 667 mmHg 43%
    06:00 +21°C° 0 mm 1 mps 668 mmHg 44%
    07:00 +22°C° 0 mm 1 mps 668 mmHg 41%
    08:00 +24°C° 0 mm 1 mps 669 mmHg 39%
    09:00 +25°C° 0 mm 1 mps 669 mmHg 36%
    10:00 +26°C° 0 mm 2 mps 669 mmHg 34%
    11:00 +27°C° 0 mm 3 mps 669 mmHg 31%
    12:00 +28°C° 0 mm 4 mps 669 mmHg 29%
    13:00 +28°C° 0.1 mm 4 mps 669 mmHg 29%
    14:00 +28°C° 0.1 mm 4 mps 669 mmHg 30%
    15:00 +27°C° 0.1 mm 4 mps 668 mmHg 30%
    16:00 +26°C° 0 mm 3 mps 668 mmHg 35%
    17:00 +24°C° 0 mm 2 mps 667 mmHg 40%
    18:00 +21°C° 0 mm 2 mps 667 mmHg 45%
    19:00 +20°C° 0 mm 2 mps 667 mmHg 45%
    20:00 +19°C° 0 mm 2 mps 667 mmHg 46%
    21:00 +18°C° 0 mm 2 mps 667 mmHg 47%
    22:00 +18°C° 0 mm 2 mps 667 mmHg 47%
    23:00 +18°C° 0 mm 2 mps 667 mmHg 47%

    26 August, Monday

    Time Temperature Precipitation Wind Pressure Humidity
    00:00 +18°C° 0 mm 2 mps 667 mmHg 47%
    01:00 +18°C° 0 mm 2 mps 667 mmHg 47%
    02:00 +17°C° 0 mm 2 mps 666 mmHg 48%
    03:00 +18°C° 0 mm 1 mps 666 mmHg 48%
    04:00 +18°C° 0 mm 1 mps 666 mmHg 49%
    05:00 +18°C° 0 mm 1 mps 666 mmHg 49%
    06:00 +19°C° 0 mm 1 mps 667 mmHg 50%
    07:00 +21°C° 0 mm 1 mps 667 mmHg 45%
    08:00 +23°C° 0 mm 1 mps 668 mmHg 40%
    09:00 +26°C° 0 mm 1 mps 669 mmHg 35%
    10:00 +26°C° 0 mm 2 mps 669 mmHg 34%
    11:00 +27°C° 0 mm 3 mps 669 mmHg 34%
    12:00 +28°C° 0 mm 3 mps 669 mmHg 33%
    13:00 +27°C° 0 mm 3 mps 669 mmHg 35%
    14:00 +27°C° 0 mm 3 mps 669 mmHg 37%
    15:00 +26°C° 0 mm 3 mps 669 mmHg 40%
    16:00 +25°C° 0.1 mm 2 mps 669 mmHg 44%
    17:00 +24°C° 0.1 mm 1 mps 669 mmHg 48%
    18:00 +22°C° 0.1 mm 1 mps 668 mmHg 53%
    19:00 +21°C° 0.1 mm 1 mps 669 mmHg 56%
    20:00 +20°C° 0.1 mm 1 mps 669 mmHg 59%
    21:00 +19°C° 0.1 mm 1 mps 669 mmHg 62%
    22:00 +19°C° 0 mm 1 mps 669 mmHg 62%
    23:00 +19°C° 0 mm 1 mps 670 mmHg 62%
    Show more